Borger, TX

10:02 PM CDT on August 21, 2017 (GMT -0500)
Hutchinson County

Weather History for KBGD - July, 2013

Change the Weather History Date:

Tuesday, July 23, 2013

  Actual Average Record
Temperature  
Mean Temperature 89 °F 82 °F  
Max Temperature 101 °F 95 °F 106 °F (2001)
Min Temperature 76 °F 70 °F 59 °F (1990)
Degree Days  
Heating Degree Days 0 0  
Month to date heating degree days 0 0  
Since 1 June heating degree days 0 3  
Since 1 July heating degree days 0 0  
Cooling Degree Days 24 18  
Month to date cooling degree days 384 385  
Year to date cooling degree days 1165 940  
Since 1 June cooling degree days 877 743  
Growing Degree Days 38 (Base 50)    
Moisture  
Dew Point 61 °F    
Average Humidity 45    
Maximum Humidity 67    
Minimum Humidity 23    
Precipitation  
Precipitation 0.00 in 0.08 in 3.12 in (1975)
Month to date precipitation 1.77 1.75  
Year to date precipitation 8.41 11.97  
Snow  
Snow 0.00 in - 0.00 in (2013)
Month to date snowfall 0.0  
Since 1 June snowfall 0.0  
Since 1 July snowfall 0.0  
Snow Depth 0.00 in    
Sea Level Pressure  
Sea Level Pressure 29.79 in    
Wind  
Wind Speed 11 mph (SSW)    
Max Wind Speed 17 mph    
Max Gust Speed 26 mph    
Visibility 10 miles    
Events      
T = Trace of Precipitation, MM = Missing Value Source: NWS Daily Summary

Daily Weather History Graph

Daily Weather History Graph

Search for Another Location

Airport or City:

Trip Planner

Search our weather history database for the weather conditions in past years. The results will help you decide how hot, cold, wet, or windy it might be!

Date:

Astronomy

Jul. 23, 2013 Rise Set
Actual Time 6:46 AM CDT 8:56 PM CDT
Civil Twilight 6:18 AM CDT 9:25 PM CDT
Nautical Twilight 5:43 AM CDT 10:00 PM CDT
Astronomical Twilight 5:04 AM CDT 10:38 PM CDT
Moon 9:31 PM CDT (7/23) 7:53 AM CDT (7/23)
Length of Visible Light 15h 07m
Length of Day
14h 09m
Full, 99% of the Moon is Illuminated
Jul 23
Full
Jul 29
Last Quarter
Aug 6
New
Aug 14
First Quarter
Aug 20
Full

Hourly Weather History & Observations

Time (CDT) Temp. Heat Index Dew Point Humidity Pressure Visibility Wind Dir Wind Speed Gust Speed Precip Events Conditions
12:51 AM 81.0 °F 82.5 °F 64.0 °F 56% 29.83 in 10.0 mi South 13.8 mph 21.9 mph N/A   Clear
1:51 AM 80.1 °F 81.7 °F 64.0 °F 58% 29.83 in 10.0 mi South 16.1 mph 21.9 mph N/A   Clear
2:51 AM 79.0 °F - 64.9 °F 62% 29.81 in 10.0 mi South 12.7 mph 21.9 mph N/A   Clear
3:51 AM 79.0 °F - 64.9 °F 62% 29.81 in 10.0 mi SSW 11.5 mph - N/A   Clear
4:51 AM 78.1 °F - 64.9 °F 64% 29.81 in 10.0 mi SSW 10.4 mph 23.0 mph N/A   Clear
5:51 AM 77.0 °F - 64.9 °F 66% 29.81 in 10.0 mi SW 10.4 mph 17.3 mph N/A   Clear
6:51 AM 77.0 °F - 64.9 °F 66% 29.82 in 10.0 mi WSW 9.2 mph - N/A   Clear
7:51 AM 78.1 °F - 66.0 °F 66% 29.82 in 10.0 mi SW 8.1 mph 17.3 mph N/A   Clear
8:51 AM 81.0 °F 83.0 °F 66.0 °F 60% 29.82 in 10.0 mi SW 16.1 mph 26.5 mph N/A   Clear
9:51 AM 86.0 °F 87.6 °F 64.9 °F 49% 29.82 in 10.0 mi WSW 10.4 mph 18.4 mph N/A   Clear
10:51 AM 90.0 °F 91.3 °F 64.0 °F 42% 29.83 in 10.0 mi SW 11.5 mph 19.6 mph N/A   Clear
11:51 AM 93.0 °F 93.8 °F 62.1 °F 36% 29.82 in 10.0 mi SW 10.4 mph 17.3 mph N/A   Clear
12:51 PM 95.0 °F 94.8 °F 60.1 °F 31% 29.81 in 10.0 mi South 6.9 mph 17.3 mph N/A   Clear
1:51 PM 98.1 °F 97.7 °F 59.0 °F 27% 29.78 in 10.0 mi South 11.5 mph 21.9 mph N/A   Clear
2:51 PM 100.0 °F 99.7 °F 57.9 °F 25% 29.77 in 10.0 mi SSW 8.1 mph - N/A   Clear
3:51 PM 99.0 °F 97.7 °F 55.9 °F 24% 29.77 in 10.0 mi South 15.0 mph 21.9 mph N/A   Clear
4:51 PM 100.9 °F 99.6 °F 55.9 °F 22% 29.74 in 10.0 mi South 11.5 mph 17.3 mph N/A   Clear
5:51 PM 100.0 °F 99.2 °F 57.0 °F 24% 29.74 in 10.0 mi SSE 11.5 mph - N/A   Clear
6:51 PM 98.1 °F 96.8 °F 57.0 °F 25% 29.73 in 10.0 mi SSW 15.0 mph 21.9 mph N/A   Clear
7:51 PM 96.1 °F 95.6 °F 59.0 °F 29% 29.73 in 10.0 mi SW 11.5 mph - N/A   Clear
8:51 PM 91.9 °F 91.5 °F 60.1 °F 34% 29.78 in 10.0 mi WSW 6.9 mph - N/A   Clear
9:51 PM 88.0 °F - 51.1 °F 28% 29.78 in 10.0 mi WSW 4.6 mph - N/A   Clear
10:51 PM 87.1 °F 85.1 °F 54.0 °F 32% 29.76 in 10.0 mi SSW 11.5 mph - N/A   Clear
11:51 PM 86.0 °F 86.1 °F 61.0 °F 43% 29.78 in 10.0 mi SSW 9.2 mph - N/A   Clear